User: anonymous   Login
Location: The D'Auria's Ocala Star Observatory
(29.0276°N, 82.1742°W)
Time: 17:22:00
(UTC-04:00)
Language:

Okean 3 Rocket - Orbit

View from above orbital plane
View from above orbital plane
View from above satellite
View from above satellite

Ground track
Ground track

The orbit data is extracted from the following two-line orbital elements,

1 21398U 91039B   18147.26635329 +.00000028 +00000-0 +51852-6 0  9999
2 21398 082.5233 265.8738 0022615 132.3038 249.9275 14.79705075433758
Epoch (UTC): 27 May 2018 06:23:32
Eccentricity: 0.0022615
inclination: 82.5233°
perigee height: 614 km
apogee height: 646 km
right ascension of ascending node: 265.8738°
argument of perigee: 132.3038°
revolutions per day: 14.79705075
mean anomaly at epoch: 249.9275°
orbit number at epoch: 43375

The dashed part of the orbit path shows where the satellite is in the earth's shadow,  

DLR